Location: *
(50.8512°N, 5.6907°E)
Time: 10:09:35
(UTC+00:00)

Cosmos 1703 - Pass Details

Date: 09 April 2020
Orbit: 524 x 540 km, 82.5° (Epoch: 22 May)

Event Time Altitude Azimuth Distance (km) Brightness Sun altitude
Rises 18:59:37 0° 349° (N) 2,706 7.3 -6.2°
Reaches altitude 10° 19:01:46 10° 350° (N) 1,811 6.4 -6.6°
Maximum altitude 19:05:46 90° 34° (NE) 547 3.3 -7.2°
Drops below altitude 10° 19:09:44 10° 171° (S) 1,799 5.6 -7.7°
Sets 19:11:52 0° 171° (S) 2,686 6.5 -8.0°
